Temperature
29 29 30 29 29 29 30 30 30 30 30 31 30 30 29 28 27 26 26 25 24 24 23 22 22 21 21 21 21 20 20 19 19 19 19 19 19 19 19 18 18 18 18 18
28 29 29 29 29 29 29 30 30 30 30 30 29 28 27 27 27 26 25 25 24 23 22 22 21 21 21 21 21 20 20 19 19 19 19 19 18 18 18 18 18 18 17 17
27 28 28 28 29 29 29 29 29 29 30 29 29 28 27 26 26 25 25 24 23 23 22 21 21 21 21 21 20 20 20 19 19 19 19 18 18 18 18 18 18 18 17 17
27 27 26 28 29 29 29 29 29 29 29 29 28 27 26 25 25 24 24 23 23 23 22 22 21 21 21 20 20 20 20 19 19 18 18 18 18 18 18 18 17 17 17 17
26 26 27 28 28 28 28 28 28 28 28 28 27 27 26 25 24 24 23 23 22 22 22 22 21 21 20 20 20 19 19 19 19 18 18 18 18 18 18 18 17 17 17 17
25 25 26 27 28 27 27 27 27 27 27 27 27 28 28 25 24 23 23 22 22 21 21 21 21 20 20 19 19 19 19 19 19 19 18 18 18 18 18 17 17 17 17 17
25 25 26 27 26 26 26 26 26 26 26 26 26 26 25 24 23 22 21 21 21 21 21 21 20 20 20 19 19 19 19 19 18 18 18 18 18 18 17 17 17 17 16 17
25 25 25 25 25 25 25 24 24 24 24 24 24 23 23 23 22 21 21 21 20 20 20 20 20 20 19 19 19 19 19 18 18 18 18 18 18 17 17 17 17 17 16 16
25 25 23 23 23 22 22 22 22 23 23 23 23 22 22 22 21 21 20 20 20 20 20 20 20 20 19 19 19 19 18 18 18 18 18 17 17 17 17 17 16 16 16 16
23 24 23 22 22 21 21 21 21 21 22 22 22 22 21 21 20 20 20 20 20 19 19 19 19 19 19 19 18 18 18 18 18 18 17 17 17 17 17 17 16 16 16 16
22 22 22 21 21 20 20 20 20 21 21 21 21 21 20 20 19 19 19 19 19 19 19 19 19 18 18 18 18 18 18 17 17 17 17 17 17 17 16 16 16 16 16 16
22 21 21 21 20 19 20 20 20 20 20 20 20 20 19 19 19 19 18 18 18 18 18 18 18 18 18 18 18 18 17 17 17 17 17 16 16 16 16 16 16 16 16 16
20 20 20 19 19 19 19 19 19 19 19 19 19 19 19 18 18 18 18 18 18 17 17 17 17 17 17 17 17 17 17 16 17 16 16 16 16 16 16 16 16 16 16 15
17 17 18 18 18 18 18 18 18 18 18 18 18 18 18 18 18 17 17 17 17 17 17 17 17 16 17 16 16 16 16 16 16 16 16 16 16 16 16 16 15 16 15 15
17 17 18 18 18 18 17 18 18 18 18 18 18 17 17 17 17 17 17 16 16 16 16 16 16 16 16 16 16 16 16 16 16 16 16 16 15 15 15 15 15 15 15 15
17 17 17 17 17 17 17 17 17 17 17 17 17 17 16 16 16 16 16 16 16 16 16 16 16 16 16 15 15 15 15 15 15 15 15 15 15 15 15 15 15 15 14 14
16 17 17 17 17 17 17 17 17 17 16 16 16 16 16 16 15 15 15 15 15 15 15 15 15 15 15 15 15 15 15 15 15 14 14 15 14 14 14 14 14 14 14 14
16 16 16 16 17 17 16 16 16 16 16 16 15 15 15 15 15 15 15 15 14 14 14 14 14 14 14 14 15 15 14 14 14 14 14 14 14 14 14 14 14 14 13 13
16 15 15 16 16 16 16 16 15 15 15 15 15 15 15 15 15 14 14 14 14 14 14 14 14 14 14 14 14 14 14 14 14 14 14 13 13 13 13 13 13 13 13 13
15 15 15 15 15 15 15 15 15 15 14 14 14 14 14 14 14 14 14 14 14 14 13 14 14 14 13 14 14 14 14 14 14 14 13 13 13 13 13 13 13 13 12 12
14 14 14 14 14 14 14 14 14 14 14 14 14 14 14 14 13 13 13 13 13 13 13 13 13 13 13 13 13 13 13 13 13 13 13 13 13 13 13 12 12 12 12 12
14 14 14 14 14 14 14 14 13 13 13 13 13 13 13 13 13 13 13 13 13 13 13 13 13 13 13 13 13 13 13 13 13 13 13 12 12 12 12 12 12 11 11 11
13 13 13 13 13 13 13 13 13 13 13 13 13 13 13 13 13 13 13 12 12 12 12 12 12 12 12 12 12 12 12 12 12 12 12 12 12 11 11 11 11 11 11 11
12 12 12 12 12 12 12 13 13 12 12 13 13 13 13 13 12 12 12 12 12 12 12 12 12 12 12 12 12 12 12 12 12 12 12 12 11 11 11 11 11 10 10 10
12 12 12 12 12 12 12 12 12 12 12 12 12 12 12 12 12 12 12 11 11 11 11 11 11 11 11 11 11 11 11 11 11 11 11 11 11 11 11 10 10 10 10 9
12 12 12 12 12 12 12 12 13 13 13 13 12 12 12 12 12 12 11 11 11 11 11 11 11 11 11 11 11 11 11 11 11 11 10 10 10 10 10 9 9 9 9 9
12 12 12 12 12 12 12 12 12 12 12 12 12 12 12 12 12 11 11 11 11 11 11 11 11 11 11 11 11 10 10 10 10 10 10 10 9 9 9 9 9 9 8 8
Wind_Speed
12 8 9 11 12 13 14 14 13 10 10 7 5 4 3 3 3 4 5 6 7 8 8 9 9 9 9 9 9 9 9 9 8 7 7 7 7 6 6 6 6 6 6 6
13 11 11 12 13 13 14 14 14 13 10 5 4 4 4 4 4 5 6 6 7 8 9 9 9 9 9 9 9 9 9 8 7 7 7 7 7 7 7 6 6 6 6 6
13 12 12 16 14 14 13 12 12 13 10 5 5 5 5 4 5 5 6 6 7 8 8 9 9 9 9 9 8 9 8 7 7 7 7 7 7 7 7 7 6 6 6 6
11 10 15 9 6 9 11 11 10 10 8 6 5 5 5 5 5 5 5 6 7 7 8 8 8 9 8 9 9 8 8 7 7 8 7 7 7 7 7 6 6 6 6 6
11 14 14 9 5 7 10 10 8 8 7 6 4 5 5 3 4 5 5 5 5 6 7 7 7 8 8 8 9 8 8 8 8 8 8 8 8 7 7 6 6 6 6 6
11 14 14 8 5 5 8 10 6 6 6 6 5 7 4 1 2 2 2 3 4 5 6 6 6 7 8 8 8 8 7 7 7 7 8 8 7 7 7 6 6 6 6 7
14 13 10 2 3 6 10 6 3 5 6 6 5 5 3 2 1 1 2 3 4 5 5 6 6 6 7 7 7 7 7 7 7 7 7 7 6 6 6 7 6 6 6 7
12 13 10 3 4 6 3 2 2 3 4 5 4 3 2 1 1 2 3 4 5 5 5 6 6 7 7 7 6 6 6 7 7 7 7 6 6 6 6 6 6 7 7 7
8 6 1 2 2 0 1 3 3 3 3 3 4 3 2 2 2 2 3 4 5 5 5 5 6 7 7 6 6 6 7 7 7 7 6 6 7 7 6 6 6 6 6 6
6 5 2 2 2 2 3 3 4 4 4 4 4 4 3 2 2 2 3 4 4 5 5 5 5 5 5 6 6 7 7 6 6 7 7 7 6 6 6 6 6 6 6 6
8 6 4 4 3 3 3 4 4 4 4 4 4 4 3 2 2 2 3 3 4 4 4 5 5 5 5 5 6 6 6 6 6 7 6 6 7 5 6 5 4 5 6 6
7 5 5 5 4 4 4 4 4 4 4 3 3 3 3 2 2 2 2 2 3 3 4 4 4 4 4 4 5 6 6 6 6 6 6 6 6 5 3 4 3 3 4 6
6 5 5 5 4 4 4 3 3 3 3 3 3 3 2 2 2 2 2 2 2 3 3 3 3 3 3 4 4 5 5 5 5 5 5 6 6 6 5 4 5 6 6 6
5 5 5 4 4 4 3 3 2 2 2 3 2 2 2 2 2 2 1 1 2 2 2 2 2 2 2 3 4 4 5 5 5 5 5 5 5 6 6 6 5 5 6 8
7 7 6 5 4 3 3 2 2 2 2 2 2 2 2 2 1 1 1 1 1 1 1 2 1 1 1 2 2 3 4 4 4 4 4 5 5 5 5 5 5 5 4 4
7 7 7 6 5 4 4 4 3 3 2 2 2 1 1 1 1 1 1 1 1 1 1 1 1 1 1 2 2 2 2 2 3 4 4 4 4 5 5 5 5 5 5 4
8 8 7 7 6 6 5 4 3 3 3 2 2 1 1 1 1 1 1 1 1 1 1 1 1 1 1 2 3 2 2 2 4 5 4 4 4 4 5 5 5 5 5 3
7 7 7 7 6 5 5 4 3 3 3 2 2 2 2 1 1 1 2 2 1 1 1 1 1 2 2 3 3 3 3 4 4 4 4 3 3 4 4 5 5 6 5 4
6 6 6 6 5 4 4 3 3 2 2 2 2 1 1 1 1 1 1 2 2 2 2 1 1 2 2 2 3 4 4 3 3 3 3 3 4 5 5 5 5 5 5 5
4 5 5 5 5 4 3 3 2 2 2 2 2 1 1 1 1 1 1 1 1 1 1 1 2 2 2 2 4 3 3 3 3 3 3 4 4 4 5 5 5 5 5 4
3 4 5 5 4 4 4 3 3 2 2 2 2 2 2 1 1 1 2 2 1 2 2 1 2 2 2 2 4 3 3 3 3 3 3 3 4 4 5 5 4 4 4 4
2 3 4 4 4 3 3 3 3 4 3 3 3 2 2 2 1 1 1 2 2 2 2 2 2 0 1 3 3 3 3 3 3 3 2 3 3 4 4 4 4 4 4 3
1 1 2 2 3 3 3 3 4 4 4 3 3 3 2 1 2 2 2 1 1 1 1 1 2 2 2 3 2 2 2 2 2 3 3 2 3 3 4 4 3 3 3 3
2 1 1 1 2 2 3 3 3 3 3 3 2 2 2 2 2 2 1 1 1 1 1 2 3 0 3 2 2 2 2 2 2 2 2 2 2 3 3 3 3 3 3 3
1 1 1 2 2 2 3 3 4 4 3 3 2 2 2 2 2 1 1 1 2 2 1 3 4 3 2 2 2 1 1 1 2 2 2 3 3 3 3 3 3 2 3 3
1 1 1 2 2 2 2 2 2 2 2 2 2 1 1 1 1 1 1 2 2 2 1 0 1 2 1 1 1 1 1 1 1 1 2 2 3 3 3 3 3 3 3 3
2 2 2 2 2 2 2 2 2 2 1 1 1 1 1 1 2 1 2 1 2 2 1 1 1 1 1 1 1 1 1 1 1 1 1 2 2 2 2 3 3 2 2 2
Wind_Direction
244 247 235 231 227 228 237 247 256 260 264 275 271 261 246 226 210 202 194 190 188 189 184 184 185 186 188 189 188 189 191 195 194 192 192 192 193 195 195 200 204 205 211 214
233 233 233 237 235 234 239 246 253 260 264 285 278 248 232 226 222 214 209 202 196 192 187 187 188 188 186 188 183 185 191 191 185 186 189 191 191 191 194 199 205 207 213 218
230 225 232 237 234 234 237 239 249 255 260 260 258 244 234 235 237 236 229 215 205 198 193 189 187 185 185 184 181 182 185 185 185 189 193 195 196 194 198 201 204 210 217 221
232 222 235 238 232 238 239 242 244 252 261 263 265 247 239 245 244 243 238 225 213 202 192 188 184 182 181 179 179 182 184 187 190 194 198 199 200 200 200 203 206 213 219 223
231 231 235 228 213 225 233 240 248 251 255 256 249 240 233 230 240 244 242 226 209 198 188 181 180 179 179 182 181 184 189 192 194 196 199 200 200 200 200 204 210 215 220 224
229 238 240 228 197 220 238 237 232 246 249 250 234 242 242 257 266 254 229 196 185 179 176 174 174 173 178 184 186 189 190 191 191 194 200 202 201 202 202 207 215 221 223 229
228 236 241 225 183 202 226 237 231 246 250 239 236 276 309 298 262 207 182 170 165 165 166 168 166 169 178 187 192 191 187 185 188 192 198 200 201 203 205 210 215 224 230 231
225 233 230 141 191 215 260 336 279 265 256 245 246 274 297 286 180 173 170 168 164 163 164 166 166 172 181 193 194 187 185 187 191 194 199 194 196 203 208 212 215 223 229 236
230 233 97 154 194 258 325 290 294 289 281 265 261 270 266 241 208 188 178 176 174 170 166 172 176 182 185 191 191 188 190 195 196 197 200 198 199 202 207 213 226 229 231 237
239 231 228 213 221 270 273 280 295 299 289 269 263 263 255 229 213 199 188 184 183 177 176 184 186 190 191 187 188 191 194 197 200 202 203 203 211 214 218 223 229 234 236 242
237 243 247 228 248 278 288 291 294 299 290 276 271 268 252 235 228 220 200 192 192 189 188 193 192 195 195 188 190 195 197 201 209 212 211 211 213 221 228 230 241 244 244 250
244 239 245 251 267 277 282 284 291 294 289 287 284 271 256 246 241 229 204 194 198 202 203 201 198 198 192 190 196 196 200 207 215 219 213 217 217 220 216 231 219 239 270 278
265 270 263 262 262 271 282 284 287 289 290 293 293 277 259 257 254 230 200 195 200 205 206 205 203 204 200 198 202 206 213 215 222 226 223 226 227 230 232 225 217 226 234 244
262 267 259 251 266 270 271 271 268 280 293 298 291 275 269 257 240 211 202 199 187 187 192 197 201 208 206 201 203 212 222 219 229 226 229 231 235 240 243 244 243 243 223 212
254 253 256 261 264 260 254 240 241 258 283 304 306 295 285 275 252 233 209 193 171 180 186 182 189 211 205 200 210 226 238 236 234 238 236 234 240 245 249 252 256 256 253 215
255 253 252 247 245 247 246 240 242 251 272 287 288 286 280 254 258 259 240 218 203 205 201 208 225 240 209 205 218 233 249 270 248 243 242 239 237 243 245 246 252 258 261 268
247 249 244 241 239 240 241 242 249 256 253 253 259 258 236 208 214 221 241 248 235 214 214 204 214 237 226 221 233 246 254 231 218 234 240 244 243 246 247 247 250 257 264 269
244 254 254 252 244 242 245 242 234 232 231 229 228 225 221 204 205 213 225 224 208 210 212 216 219 217 216 220 228 238 236 232 224 234 239 242 245 251 256 257 259 263 267 249
240 250 253 250 245 242 243 239 231 228 229 219 208 205 220 227 217 208 204 205 217 225 236 248 241 235 226 228 244 238 241 232 223 233 244 230 237 245 251 256 261 265 267 273
244 240 238 235 232 232 235 233 224 213 214 209 194 179 189 210 216 221 220 240 270 298 282 286 237 237 244 240 254 244 244 242 241 237 246 252 254 257 258 262 265 269 274 278
233 222 224 225 224 225 224 220 209 204 209 210 201 199 200 207 224 238 250 257 301 320 283 215 235 248 254 263 248 251 243 242 246 249 254 266 273 277 278 279 278 278 280 284
237 225 228 226 221 217 216 211 201 199 202 200 193 190 187 198 223 245 264 288 312 338 283 245 236 66 304 272 249 254 248 248 254 259 266 276 282 283 282 288 291 292 291 291
286 254 247 242 233 223 209 199 195 194 195 196 192 192 202 240 269 273 273 265 272 297 276 305 52 74 290 261 270 266 261 264 272 276 272 278 287 290 295 297 300 300 297 295
297 283 261 239 222 209 206 205 199 190 190 193 198 203 216 227 244 261 254 170 175 184 205 93 101 139 261 251 263 261 262 276 287 292 297 301 295 297 305 306 304 302 298 296
286 266 238 217 202 199 194 199 195 188 190 188 194 200 231 249 250 233 213 168 143 169 179 141 160 211 235 260 266 272 283 319 336 336 332 325 322 323 317 309 309 307 307 306
254 217 208 214 199 196 190 188 187 186 194 191 187 182 200 209 207 195 173 165 166 178 217 183 162 194 213 252 279 307 323 345 345 319 334 331 329 330 327 325 321 317 317 320
225 206 196 197 190 188 179 167 171 176 190 199 191 191 196 196 184 176 180 184 185 182 181 189 221 210 221 253 275 284 290 323 351 343 330 326 326 328 329 325 326 330 335 338
Height
1483 1481 1482 1485 1486 1487 1488 1486 1489 1486 1485 1482 1483 1486 1489 1492 1494 1496 1498 1499 1501 1503 1505 1507 1509 1510 1512 1515 1517 1519 1520 1522 1523 1525 1526 1527 1529 1530 1531 1532 1533 1534 1534 1535
1487 1482 1483 1485 1483 1484 1484 1484 1483 1482 1483 1481 1484 1487 1489 1491 1492 1494 1496 1497 1499 1500 1502 1504 1505 1507 1509 1511 1513 1515 1517 1519 1520 1522 1523 1524 1526 1527 1528 1529 1530 1531 1531 1532
1487 1482 1485 1488 1480 1480 1481 1480 1481 1484 1482 1482 1484 1486 1488 1490 1491 1492 1493 1495 1496 1497 1499 1501 1502 1504 1506 1508 1510 1512 1514 1515 1517 1519 1520 1522 1523 1524 1525 1526 1527 1528 1528 1529
1484 1489 1500 1479 1473 1474 1477 1477 1477 1478 1479 1481 1483 1485 1487 1488 1489 1490 1491 1492 1493 1495 1496 1498 1500 1502 1504 1506 1507 1509 1511 1512 1514 1516 1518 1519 1520 1521 1521 1523 1524 1524 1525 1525
1485 1487 1483 1476 1474 1476 1478 1479 1477 1477 1479 1480 1482 1483 1484 1486 1487 1488 1489 1489 1490 1492 1494 1496 1498 1500 1502 1503 1505 1506 1508 1509 1511 1513 1515 1516 1516 1517 1518 1519 1520 1520 1521 1521
1485 1489 1487 1474 1472 1476 1478 1480 1476 1477 1478 1479 1480 1479 1479 1483 1485 1486 1486 1487 1488 1490 1491 1493 1495 1498 1499 1501 1503 1504 1505 1507 1508 1509 1511 1512 1513 1513 1514 1515 1516 1517 1517 1517
1483 1484 1474 1470 1473 1476 1483 1478 1476 1477 1478 1479 1479 1479 1481 1482 1483 1484 1484 1485 1486 1487 1489 1490 1492 1495 1497 1499 1500 1502 1503 1504 1505 1506 1507 1508 1509 1510 1511 1512 1512 1513 1513 1513
1479 1482 1477 1472 1473 1475 1476 1477 1477 1477 1477 1478 1479 1480 1481 1481 1482 1482 1482 1484 1484 1485 1486 1488 1490 1492 1494 1496 1497 1499 1500 1501 1502 1503 1505 1506 1506 1506 1507 1508 1508 1508 1509 1509
1470 1472 1473 1473 1475 1477 1478 1478 1477 1477 1477 1478 1478 1479 1480 1480 1481 1481 1481 1482 1483 1484 1485 1486 1487 1489 1490 1492 1494 1495 1496 1498 1499 1500 1501 1502 1502 1503 1503 1504 1505 1505 1506 1505
1472 1470 1473 1475 1476 1477 1477 1477 1477 1477 1477 1477 1477 1477 1478 1479 1479 1479 1480 1481 1481 1482 1483 1484 1485 1486 1487 1488 1490 1491 1493 1494 1495 1496 1497 1498 1499 1500 1500 1501 1501 1502 1502 1501
1472 1472 1473 1474 1475 1476 1476 1476 1476 1475 1476 1475 1475 1476 1476 1477 1477 1478 1478 1479 1480 1480 1481 1482 1483 1484 1484 1485 1486 1488 1489 1490 1492 1493 1494 1494 1495 1495 1496 1496 1497 1497 1497 1498
1468 1471 1472 1473 1474 1474 1474 1474 1474 1473 1474 1474 1475 1474 1474 1475 1475 1476 1476 1476 1477 1478 1479 1480 1480 1481 1481 1482 1483 1484 1486 1487 1489 1490 1491 1491 1491 1491 1490 1491 1491 1491 1491 1492
1471 1471 1472 1472 1472 1473 1473 1472 1472 1472 1472 1472 1473 1473 1473 1473 1474 1474 1474 1475 1475 1476 1477 1478 1478 1478 1479 1479 1481 1481 1483 1484 1486 1487 1487 1487 1488 1487 1487 1487 1486 1486 1486 1486
1471 1471 1470 1470 1470 1471 1471 1470 1470 1470 1470 1470 1471 1471 1471 1472 1472 1472 1472 1473 1474 1474 1475 1476 1476 1476 1477 1477 1478 1478 1480 1481 1482 1482 1483 1483 1484 1484 1484 1483 1482 1481 1481 1480
1469 1469 1469 1468 1468 1468 1469 1468 1468 1468 1468 1469 1469 1469 1469 1470 1470 1470 1471 1471 1472 1472 1473 1473 1473 1474 1474 1475 1475 1476 1477 1478 1478 1479 1479 1479 1479 1480 1480 1479 1479 1478 1477 1476
1466 1466 1466 1466 1466 1466 1467 1467 1466 1466 1467 1467 1467 1467 1468 1468 1468 1469 1469 1469 1470 1470 1470 1470 1471 1471 1471 1472 1473 1473 1474 1474 1475 1476 1476 1476 1475 1476 1475 1475 1475 1474 1474 1473
1463 1463 1463 1464 1464 1464 1465 1465 1465 1465 1465 1466 1466 1466 1466 1466 1466 1467 1467 1468 1468 1468 1468 1468 1468 1468 1468 1469 1470 1471 1471 1471 1471 1472 1472 1472 1472 1471 1471 1471 1470 1470 1470 1469
1460 1460 1461 1461 1461 1462 1462 1462 1463 1463 1463 1464 1464 1464 1464 1464 1464 1465 1465 1466 1466 1465 1466 1466 1466 1466 1466 1466 1467 1468 1469 1469 1468 1468 1468 1468 1468 1467 1467 1467 1466 1466 1465 1465
1456 1457 1458 1458 1459 1460 1460 1460 1460 1461 1461 1462 1462 1462 1462 1463 1463 1463 1464 1464 1464 1464 1464 1464 1463 1463 1464 1463 1464 1465 1466 1466 1465 1465 1465 1464 1463 1463 1463 1462 1462 1461 1461 1460
1454 1455 1455 1456 1457 1457 1458 1458 1458 1459 1459 1460 1460 1460 1461 1461 1461 1462 1462 1462 1462 1462 1462 1461 1461 1461 1461 1461 1462 1463 1463 1462 1462 1461 1462 1462 1461 1460 1459 1459 1458 1457 1457 1456
1452 1452 1452 1453 1454 1454 1455 1456 1456 1457 1457 1458 1459 1459 1459 1459 1460 1460 1460 1460 1460 1459 1459 1459 1459 1459 1459 1459 1459 1460 1460 1459 1459 1459 1459 1458 1458 1457 1456 1455 1454 1454 1453 1452
1450 1450 1450 1451 1451 1452 1452 1453 1454 1454 1455 1456 1457 1457 1458 1458 1459 1459 1458 1459 1458 1457 1457 1457 1457 1457 1457 1457 1458 1457 1457 1457 1457 1456 1456 1455 1455 1454 1454 1453 1452 1451 1450 1449
1448 1448 1448 1449 1449 1449 1450 1451 1452 1453 1453 1454 1455 1456 1456 1457 1457 1457 1457 1456 1456 1455 1455 1455 1455 1455 1455 1455 1455 1455 1455 1454 1454 1453 1453 1452 1452 1451 1451 1450 1449 1448 1447 1446
1447 1447 1447 1447 1447 1448 1448 1449 1450 1451 1452 1453 1454 1454 1455 1455 1455 1455 1455 1454 1453 1453 1453 1453 1453 1452 1453 1453 1453 1453 1452 1452 1451 1451 1450 1450 1449 1449 1448 1447 1446 1445 1444 1443
1446 1446 1446 1446 1446 1446 1447 1447 1448 1450 1451 1452 1453 1453 1454 1454 1454 1453 1453 1453 1452 1452 1452 1452 1451 1451 1451 1452 1451 1451 1450 1450 1449 1448 1448 1448 1447 1446 1445 1444 1443 1443 1442 1440
1445 1445 1445 1445 1445 1445 1446 1447 1448 1449 1450 1451 1452 1452 1452 1452 1452 1452 1452 1451 1451 1451 1451 1451 1450 1450 1450 1449 1449 1449 1448 1448 1447 1447 1446 1446 1445 1444 1443 1442 1441 1440 1439 1438
1444 1444 1444 1444 1444 1445 1445 1446 1447 1448 1449 1450 1450 1451 1451 1451 1451 1450 1450 1450 1450 1450 1449 1449 1449 1448 1448 1448 1447 1447 1447 1446 1446 1446 1445 1444 1443 1442 1441 1440 1439 1437 1436 1435